Location: Unspecified
(48.8656°N, 0.0000°E)
Time: 06:26:52
(UTC+00:00)

SR - Pass Details

Date: 04 July 2019
Orbit: 575 x 881 km, 66.7° (Epoch: 12 October)

Event Time Altitude Azimuth Distance (km) Brightness Sun altitude
Rises 06:53:54 0° 328° (NNW) 2,958 ? 25.0°
Reaches altitude 10° 06:56:58 10° 350° (N) 2,104 ? 25.5°
Maximum altitude 06:59:56 16° 29° (NNE) 1,782 ? 26.0°
Drops below altitude 10° 07:03:03 10° 67° (ENE) 2,223 ? 26.5°
Sets 07:06:26 0° 89° (E) 3,215 ? 27.1°
